Flag for Norway Weather past 2 weeks in Tananger, Norway

Now
37 °F

Partly cloudy.


Feels Like: 33 °F
Forecast: 34 / 40 °F
Wind: 6 mph from Southwest

Location: Stavanger / Sola

Current Time: Mar 2, 2015 at 10:16:46 PM

Latest Report: Mar 2, 2015 at 9:20 PM


Visibility: N/A

Pressure: 29.36 "Hg

Humidity: 87%

Dew point: 34 °F

Location of TanangerLocation

Historic Weather in Tananger — Graph

°F

Tananger temperature yesterday

Maximum temperature yesterday: 45 °F (at 7:20 AM)
Minimum temperature yesterday: 41 °F (at 4:50 AM)
Average temperature yesterday: 43 °F

Past Weeks' High & Low Weather Summary

 TemperatureHumidityPressure
High46 °F (Feb 18, 1:20 PM)100% (Feb 18, 6:20 AM)30.30 "Hg (Feb 18, 6:20 AM)
Low34 °F (Feb 17, 8:20 AM)53% (Feb 22, 11:20 AM)28.71 "Hg (Feb 23, 6:20 AM)
Average41 °F86%29.52 "Hg
* Reported Feb 15 8:50 PM — Mar 2 8:50 PM, Tananger, Weather by CustomWeather, © 2015

Note: Actual official high and low records may vary slightly from our data, if they occured in-between our weather recording intervals... More about our weather records

Advertising

Tananger weather history for previous 24 hours

 ConditionsComfort  
Time TempWeatherWind HumidityBarometerVisibility
8:50 PM
Mon, Mar 2
39 °FPartly cloudy.5 mph81%29.36 "HgN/A
8:20 PM41 °FPartly cloudy.6 mph81%29.36 "HgN/A
7:50 PM41 °FPartly cloudy.6 mph81%29.33 "HgN/A
7:20 PM39 °FPartly cloudy.5 mph87%29.33 "HgN/A
6:50 PM39 °FPassing clouds.9 mph87%29.33 "HgN/A
6:20 PM41 °FPassing clouds.9 mph87%29.30 "HgN/A
5:50 PM41 °FScattered showers. Broken clouds.7 mph87%29.27 "HgN/A
5:20 PM43 °FSprinkles. Broken clouds.9 mph76%29.27 "HgN/A
4:50 PM43 °FBroken clouds.10 mph76%29.27 "HgN/A
4:20 PM43 °FPartly sunny.7 mph71%29.24 "HgN/A
3:50 PM45 °FScattered clouds.7 mph71%29.24 "HgN/A
3:20 PM45 °FScattered clouds.7 mph71%29.24 "HgN/A
2:50 PM45 °FScattered clouds.7 mph71%29.24 "HgN/A
2:20 PM45 °FScattered clouds.8 mph66%29.21 "HgN/A
1:50 PM45 °FScattered clouds.9 mph71%29.21 "HgN/A
1:20 PM45 °FScattered clouds.10 mph76%29.18 "HgN/A
12:50 PM45 °FScattered clouds.15 mph76%29.18 "HgN/A
12:20 PM45 °FScattered clouds.10 mph76%29.18 "HgN/A
11:50 AM45 °FScattered showers. Scattered clouds.7 mph76%29.15 "HgN/A
11:20 AM41 °FScattered showers. Broken clouds.14 mph87%29.15 "HgN/A
10:50 AM43 °FScattered showers. Broken clouds.12 mph81%29.12 "HgN/A
10:20 AM43 °FScattered showers. Broken clouds.13 mph87%29.12 "HgN/A
9:50 AM41 °FScattered showers. Broken clouds.14 mph93%29.09 "Hg6 mi
9:20 AM41 °FScattered showers. Broken clouds.10 mph87%29.09 "HgN/A
8:50 AM37 °FLight rain. Broken clouds.8 mph93%29.06 "HgN/A
8:20 AM37 °FScattered showers. Partly sunny.13 mph93%29.06 "HgN/A
7:50 AM37 °FRain showers. Partly sunny.13 mph93%29.03 "Hg6 mi
7:20 AM37 °FRain showers. Passing clouds.10 mph93%29.03 "Hg6 mi
6:50 AM37 °FSprinkles. Passing clouds.10 mph93%29.03 "HgN/A
6:20 AM37 °FPassing clouds.10 mph93%29.03 "HgN/A
5:50 AM37 °FPassing clouds.9 mph93%29.03 "HgN/A
4:50 AM37 °FSprinkles. Partly cloudy.8 mph93%29.00 "HgN/A
3:50 AM39 °FPassing clouds.10 mph93%29.00 "HgN/A
2:50 AM41 °FPassing clouds.8 mph87%29.00 "HgN/A
1:50 AM41 °FPartly cloudy.8 mph87%29.00 "HgN/A
12:50 AM41 °FPartly cloudy.10 mph87%29.00 "HgN/A
12:20 AM41 °FPassing clouds.8 mph93%29.00 "HgN/A
11:50 PM
Sun, Mar 1
41 °FPassing clouds.8 mph87%29.00 "HgN/A
11:20 PM41 °FPassing clouds.9 mph87%29.00 "HgN/A
10:50 PM41 °FPassing clouds.9 mph87%29.00 "HgN/A
10:20 PM41 °FPassing clouds.12 mph93%29.00 "HgN/A
Weather by CustomWeather, © 2015

See weather overviewHow to use our weather pages